Regional Weather Roundup
Issued by NWS

Home | Current Version | Previous Version | Text Only | Print | Product List | Glossary On
Versions: 1 2 3 4 5 6 7 8 9 10 11 12 13 14 15 16 17 18 19 20 21 22 23 24 25 26 27 28 29 30 31 32 33 34 35 36 37 38 39 40 41 42 43 44 45 46 47 48 49 50
681
ASUS43 KDMX 310108
RWRIA

WEATHER ROUNDUP FOR IOWA
NATIONAL WEATHER SERVICE DES MOINES IA
800 PM CDT SAT JUL 30 2016

NOTE: "FAIR" INDICATES FEW OR NO CLOUDS BELOW 12,000 FEET WITH NO
SIGNIFICANT WEATHER AND/OR OBSTRUCTIONS TO VISIBILITY.

* - THESE STATIONS ARE NOT NWS STATIONS...THUS NOT UNDER NWS
QUALITY CONTROL.  THEY ALSO DO NOT REPORT WEATHER SUCH
AS PRECIPITATION OR FOG.

IAZ001>003-012>014-020>022-031>034-043>046-310200-
   NORTHWEST IOWA

CITY           SKY/WX    TMP DP  RH WIND       PRES   REMARKS
CARROLL *      CLEAR     77  66  69 SE3       29.96S
CHEROKEE *     CLEAR     77  63  61 SE5       29.95F
DENISON *      CLEAR     77  64  65 S3        29.94F
LE MARS *      CLEAR     79  63  57 SE5       29.95S HX  80
SHELDON *      CLEAR     73  64  73 SE6       29.95S
SIOUX CITY     CLEAR     79  62  56 S8        29.93F HX  80
SPENCER        CLEAR     76  61  59 S5        29.97S
STORM LAKE *   CLEAR     73  66  78 SE5       29.97F
$$

IAZ055>058-069>071-079>083-090>094-310200-
   SOUTHWEST IOWA

CITY           SKY/WX    TMP DP  RH WIND       PRES   REMARKS
ATLANTIC *     CLEAR     77  66  69 S3        29.96S
CLARINDA *       N/A     75  68  78 MISG      29.98S
COUNCIL BLFS * PTCLDY    75  66  73 SE5       29.95F
CRESTON *      CLEAR     75  66  73 CALM      29.99R
HARLAN  *      CLEAR     75  66  73 CALM      29.99S
LAMONI         CLEAR     78  66  66 CALM      29.97R HX  80
RED OAK *      PTCLDY    77  66  69 SE3       29.96S
SHENANDOAH *   MOCLDY    77  70  78 CALM      29.96S
$$

IAZ047>049-059>061-072>074-084-310200-
   CENTRAL IOWA

CITY           SKY/WX    TMP DP  RH WIND       PRES   REMARKS
AMES           CLEAR     76  69  79 CALM      29.96S
ANKENY *         N/A    N/A N/A N/A MISG        N/A
BOONE *        CLEAR     77  66  69 CALM      29.96S
CHARITON *       N/A    N/A N/A N/A MISG        N/A
DES MOINES     PTCLDY    78  65  63 S6        29.95S HX  80
GRINNELL*      CLEAR     75  66  73 CALM      29.98R
KNOXVILLE *    CLEAR     77  64  65 CALM      29.95S
MARSHALLTOWN   CLEAR     75  69  81 E3        29.96S
NEWTON *       CLEAR     75  70  83 CALM      29.96S
PELLA *        CLEAR     76  68  76 CALM      29.98R
PERRY *          N/A     76  71  82 CALM      29.96S
$$

IAZ004>006-015-016-023>025-035-036-310200-
   NORTH CENTRAL IOWA

CITY           SKY/WX    TMP DP  RH WIND       PRES   REMARKS
ALGONA *       CLEAR     77  66  69 CALM      29.98S
ESTHERVILLE    CLEAR     73  67  81 SE5       29.97F
FORT DODGE *   PTCLDY    77  66  69 CALM      29.97F
MASON CITY     PTCLDY    74  67  78 NE5       30.00R
FOREST CITY *    N/A     73  64  73 CALM      29.99S
IOWA FALLS *     N/A     77  67  71 CALM      29.99R
$$

IAZ007>011-017>019-026>030-037>042-050>054-066-310200-
   NORTHEAST IOWA

CITY           SKY/WX    TMP DP  RH WIND       PRES   REMARKS
CEDAR RAPIDS   PTCLDY    72  70  93 E7        29.96S
CHARLES CITY * MOCLDY    73  70  88 SE3       30.00R
CLINTON *      CLOUDY    75  70  84 CALM      29.98S
DECORAH *      CLEAR     72  66  83 SE5       30.00R
DUBUQUE          N/A    N/A N/A N/A MISG      30.00R
MONTICELLO *   CLEAR     73  68  83 E6        29.97F
OELWEIN *      PTCLDY    73  66  78 E6        29.99S
WATERLOO       PTCLDY    74  67  78 E6        29.96S
$$

IAZ064-065-067-068-078-310200-
   EAST CENTRAL IOWA

CITY           SKY/WX    TMP DP  RH WIND       PRES   REMARKS
DAVENPORT      PTCLDY    74  68  81 NE7       29.97S
IOWA CITY      PTCLDY    76  67  73 E5        29.97S
MT. PLEASANT * CLEAR     78  71  79 CALM      29.96R HX  80
MUSCATINE *    CLEAR     77  70  78 N5        29.95S
QUAD CITIES    CLEAR     78  66  66 NE5       29.95S HX  80
$$

IAZ062-063-075>077-085>089-095>099-310200-
   SOUTHEAST IOWA

CITY           SKY/WX    TMP DP  RH WIND       PRES   REMARKS
BURLINGTON     CLEAR     75  71  87 NW3       29.96R
FAIRFIELD *    CLEAR     75  68  78 CALM      29.96S
KEOKUK *       CLEAR     79  66  65 W3        29.95R HX  81
OSKALOOSA *      N/A     76  65  70 CALM      29.97S
CENTERVILLE *    N/A     73  70  88 CALM      29.98S
OTTUMWA        CLEAR     77  65  66 CALM      29.96R
WASHINGTON *   CLEAR     77  70  78 E3        29.97R
$$

ABBREVIATIONS USED IN REMARKS
   TC - TEMPERATURES IN CELSIUS
  WCI - WIND CHILL INDEX
   HX - HEAT INDEX
  VSB - VISIBILITY
$$





USA.gov is the U.S. government's official web portal to all federal, state and local government web resources and services.